[[{"header":{"parameterUnit":"m.s-1","parameterCategory":1,"la1":30.2991,"la2":30.254,"lo1":-89.0895,"lo2":-89.0444,"dy":0.0017,"dx":0.0017,"nx":28,"ny":28,"refTime":"2025-04-12T09:00:00:Z","depth":0,"parameterNumber":2,"parameterNumberName":"U-component_of_WINDS"},"data":[0,0,0,0,0,0,0,0,0,0,0,0,0,0,0,0,0,0,0,0,0,0,0,0,0,0,0,0,0,0,0,0,0,0,0,0,0,0,0,0,0,0,0,0,0,0,0,0,0,0,0,0,0,0,0,0,0,0,3.2056,3.2055,0,3.1995,3.1995,3.1994,3.1838,3.1835,3.1832,3.1829,3.1767,3.1769,3.177,0,0,0,0,0,0,0,0,0,0,0,0,0,3.2037,3.2038,3.2056,3.2055,3.2055,3.1995,3.1995,3.1994,3.1839,3.1835,3.1831,3.1827,3.1767,3.1769,3.177,0,0,0,0,0,0,0,0,0,0,0,0,0,3.2018,3.2039,3.2056,3.197,3.1962,3.1996,3.1995,3.1993,3.184,3.1835,3.183,3.1825,3.1766,3.1768,3.177,3.1883,0,0,3.1777,3.1778,0,0,0,0,0,0,0,0,3.2019,3.2019,3.1984,3.1976,3.1967,3.1919,3.1965,3.1956,3.1841,3.1886,3.1829,3.1823,3.1822,3.1819,3.1819,3.188,3.1877,3.1777,3.1779,3.178,3.178,0,0,0,0,0,0,0,3.2021,3.2021,3.2032,3.1983,3.1973,3.1934,3.1926,3.1963,3.1883,3.1882,3.1871,3.1865,3.1816,3.1817,3.1816,3.1876,3.1777,3.1779,3.178,3.1781,3.2022,3.2027,0,0,0,0,0,0,3.2034,3.2023,3.2034,3.203,3.1981,3.1939,3.1929,3.194,3.1882,3.1868,3.187,3.1858,3.1816,3.1814,3.1813,3.1937,3.1779,3.1782,3.1783,3.2017,3.2023,3.2029,0,0,0,0,0,0,3.2035,3.2037,3.2036,3.2023,3.202,3.1944,3.1957,3.1941,3.1941,3.1872,3.1857,3.1885,3.1812,3.181,3.1866,3.1933,3.1782,3.1784,3.2011,3.2019,3.2026,3.2189,0,0,0,0,0,0,3.2035,3.2038,3.208,3.2025,3.2022,3.2091,3.1961,3.1943,3.1945,3.193,3.1883,3.187,3.1808,3.1863,3.1868,3.1933,3.1786,3.2005,3.2015,3.2024,3.2177,3.2201,3.2222,0,0,0,0,0,3.2035,3.213,3.2083,3.2086,3.2073,3.2095,3.2092,3.2018,3.1952,3.1993,3.1948,3.1872,3.1926,3.187,3.1874,3.1941,3.2,3.2012,3.2023,3.2167,3.2196,3.2221,0,0,0,0,0,0,3.2196,3.2121,3.2069,3.2149,3.2129,3.2069,3.2118,3.2053,3.2052,3.2037,3.1946,3.1936,3.2003,3.1978,3.1918,3.2045,3.195,3.1963,3.2058,3.2086,3.2108,3.2111,3.1788,0,0,0,0,0,3.2241,3.2265,3.2198,3.2275,3.2268,3.2196,3.2202,3.2147,3.2123,3.2114,3.2073,3.2053,3.2064,3.2074,3.2082,3.2173,3.2159,3.2221,3.2244,3.2262,3.2273,3.2316,3.2342,3.2066,3.2066,3.2066,0,0,3.2333,3.2295,3.2316,3.2307,3.2285,3.231,3.2189,3.2223,3.224,3.2119,3.2167,3.2137,3.2108,3.2181,3.2211,3.2162,3.2347,3.2277,3.2292,3.2293,3.2331,3.2357,3.238,3.2074,3.2073,3.2072,0,0,3.2514,3.249,3.2549,3.2529,3.2497,3.2448,3.2463,3.2411,3.2386,3.2433,3.2341,3.2361,3.2385,3.2366,3.236,3.2533,3.2461,3.2538,3.2654,3.2696,3.2718,3.2737,3.2794,3.2817,3.255,3.2551,3.2551,0,3.2633,3.2668,3.2588,3.2626,3.2623,3.2514,3.2572,3.2557,3.253,3.253,3.2475,3.2499,3.2473,3.2538,3.258,3.258,3.2591,3.2542,3.2721,3.2739,3.2756,3.2809,3.2832,3.256,3.2559,3.2558,3.2557,0,3.2814,3.284,3.2892,3.2866,3.287,3.2919,3.2844,3.2857,3.2802,3.2758,3.2806,3.277,3.2766,3.2778,3.2725,3.2835,3.2805,3.2738,3.264,3.2792,3.2841,3.2862,3.2573,3.257,3.2567,3.2565,0,0,3.3094,3.3022,3.3042,3.3027,3.2984,3.3001,3.3045,3.304,3.3051,3.3037,3.3068,3.3089,3.3026,3.3019,3.2963,3.3001,3.3135,3.2928,3.2926,3.2964,3.3249,3.3298,3.3323,3.3088,3.3092,3.3095,3.325,0,3.3261,3.3329,3.3257,3.3339,3.336,3.3256,3.3292,3.3269,3.3229,3.3241,3.3197,3.3212,3.3129,3.3124,3.3157,3.3112,3.319,3.31,3.3114,3.3116,3.3121,3.3349,3.3401,3.3549,3.3269,3.3273,3.3275,0,3.3464,3.3457,3.3541,3.3488,3.3494,3.3529,3.3517,3.353,3.3501,3.3469,3.3461,3.3393,3.3429,3.3337,3.3385,3.3325,3.3327,3.3305,3.3309,3.3305,3.3202,3.3347,3.3595,3.3616,3.3305,3.3303,3.3301,0,3.3654,3.3666,3.3716,3.3708,3.3649,3.3675,3.3652,3.3618,3.3618,3.3609,3.3608,3.3604,3.3601,3.3598,3.353,3.347,3.3585,3.3488,3.3557,3.3559,3.3583,3.3582,3.3831,3.3592,3.3592,3.3591,3.3591,0,3.3846,3.39,3.38,3.3831,3.3888,3.3805,3.3864,3.383,3.38,3.3822,3.3733,3.3755,3.3665,3.3677,3.3624,3.367,3.367,3.3644,3.3628,3.3649,3.3652,3.3647,3.3633,3.3597,3.3596,3.3595,3.3594,0,3.4066,3.4002,3.4049,3.3989,3.3976,3.402,3.3968,3.3994,3.3948,3.3976,3.3978,3.3907,3.3916,3.3848,3.3846,3.381,3.3879,3.3848,3.3889,3.3877,3.3949,3.3942,3.4201,3.4229,3.3976,3.3978,3.398,0,3.4191,3.423,3.4174,3.4181,3.4162,3.4176,3.4176,3.4096,3.4099,3.4068,3.4096,3.4099,3.4095,3.4115,3.4062,3.4059,3.4025,3.4116,3.4024,3.4043,3.4021,3.4018,3.402,3.4134,3.4137,3.414,3.4142,0,3.4417,3.4382,3.4385,3.4377,3.4379,3.4369,3.4353,3.4364,3.4277,3.4286,3.4293,3.4291,3.4287,3.4289,3.4276,3.4251,3.4181,3.4172,3.4187,3.4207,3.4227,3.4213,3.3937,3.4165,3.4163,3.4161,3.416,3.4159,3.4589,3.4618,3.4582,3.4587,3.4567,3.4553,3.4573,3.453,3.4535,3.4524,3.4478,3.4493,3.4461,3.4435,3.4417,3.4427,3.4383,3.4406,3.4411,3.4417,3.4428,3.4229,3.4425,3.4424,3.4423,3.4423,3.4422,0,3.4807,3.4779,3.4785,3.4764,3.4768,3.4703,3.4682,3.4689,3.4704,3.4679,3.4678,3.4686,3.4687,3.4635,3.4629,3.4647,3.4615,3.4648,3.4644,3.4638,3.447,3.4456,3.4674,3.4674,3.4674,3.4674,3.4673,3.4673,3.492,3.4963,3.4925,3.4956,3.4927,3.4941,3.4934,3.492,3.49,3.4912,3.4913,3.4879,3.4842,3.4833,3.4831,3.4815,3.4815,3.4859,3.4832,3.4675,3.4651,3.4627,3.4613,3.486,3.4861,3.4998,3.5,3.5001]},{"header":{"parameterUnit":"m.s-1","parameterCategory":1,"la1":30.2991,"la2":30.254,"lo1":-89.0895,"lo2":-89.0444,"dy":0.0017,"dx":0.0017,"nx":28,"ny":28,"refTime":"2025-04-12T09:00:00:Z","depth":0,"parameterNumber":3,"parameterNumberName":"V-component_of_WINDS"},"data":[0,0,0,0,0,0,0,0,0,0,0,0,0,0,0,0,0,0,0,0,0,0,0,0,0,0,0,0,0,0,0,0,0,0,0,0,0,0,0,0,0,0,0,0,0,0,0,0,0,0,0,0,0,0,0,0,0,0,5.6794,5.6795,0,5.6877,5.6878,5.6879,5.684,5.6838,5.6836,5.6834,5.6913,5.6916,5.692,0,0,0,0,0,0,0,0,0,0,0,0,0,5.6596,5.6599,5.6794,5.6795,5.6796,5.6877,5.6878,5.6879,5.6841,5.6838,5.6836,5.6833,5.6911,5.6916,5.6921,0,0,0,0,0,0,0,0,0,0,0,0,0,5.668,5.6601,5.6794,5.6787,5.6787,5.6877,5.6878,5.6879,5.6841,5.6838,5.6835,5.6832,5.691,5.6916,5.6921,5.7021,0,0,5.694,5.6942,0,0,0,0,0,0,0,0,5.6675,5.6688,5.6787,5.6788,5.6788,5.6845,5.6837,5.6926,5.6842,5.6821,5.6834,5.6831,5.6892,5.69,5.6922,5.7024,5.7028,5.694,5.6944,5.6947,5.6948,0,0,0,0,0,0,0,5.667,5.6684,5.6827,5.6788,5.6789,5.6777,5.6786,5.6853,5.6872,5.6822,5.682,5.683,5.6892,5.6916,5.6923,5.7029,5.694,5.6946,5.6949,5.6952,5.7213,5.7216,0,0,0,0,0,0,5.6665,5.6679,5.6824,5.6829,5.6723,5.6783,5.6793,5.683,5.6872,5.6875,5.6833,5.6828,5.6907,5.6916,5.6926,5.7042,5.6947,5.6952,5.6956,5.7209,5.7213,5.7217,0,0,0,0,0,0,5.6661,5.6678,5.6821,5.6754,5.6771,5.679,5.6832,5.6833,5.6857,5.688,5.6882,5.6854,5.6905,5.6917,5.6997,5.7044,5.6955,5.696,5.7206,5.7211,5.7215,5.7276,0,0,0,0,0,0,5.6655,5.6677,5.6717,5.6755,5.6775,5.6893,5.6835,5.6837,5.6868,5.6863,5.6901,5.6904,5.6904,5.6988,5.7003,5.7051,5.6965,5.7201,5.7208,5.7214,5.727,5.7283,5.7293,0,0,0,0,0,5.6648,5.673,5.6719,5.6737,5.6825,5.6896,5.6907,5.6907,5.6873,5.6911,5.6925,5.6903,5.7037,5.6997,5.7013,5.7063,5.7198,5.7206,5.7213,5.7265,5.728,5.7293,0,0,0,0,0,0,5.6695,5.6735,5.6723,5.682,5.6855,5.6889,5.6938,5.6924,5.6967,5.696,5.6956,5.6965,5.7047,5.7063,5.7017,5.7159,5.7112,5.7123,5.7145,5.716,5.7172,5.7165,5.697,0,0,0,0,0,5.6717,5.6774,5.6804,5.6887,5.6905,5.6919,5.695,5.6947,5.6982,5.6996,5.7016,5.7049,5.7098,5.713,5.7177,5.7273,5.7278,5.7315,5.7327,5.7336,5.7345,5.7393,5.7409,5.7242,5.7242,5.7241,0,0,5.6762,5.6791,5.6827,5.6897,5.6924,5.6979,5.6931,5.6993,5.7033,5.7004,5.708,5.7096,5.7133,5.722,5.7259,5.7236,5.7393,5.7346,5.7353,5.7357,5.7402,5.7418,5.7432,5.7247,5.7246,5.7245,0,0,5.6872,5.6902,5.6972,5.7,5.7041,5.705,5.7067,5.7103,5.7113,5.719,5.7168,5.7215,5.7301,5.7327,5.7351,5.747,5.7449,5.7485,5.7545,5.7593,5.7606,5.7617,5.7656,5.7671,5.7495,5.7495,5.7495,0,5.6923,5.7008,5.7009,5.7072,5.7102,5.7081,5.715,5.7176,5.723,5.725,5.7224,5.733,5.7353,5.7444,5.7473,5.7495,5.7511,5.748,5.7604,5.7616,5.7626,5.7663,5.7679,5.7499,5.7498,5.7498,5.7497,0,5.7066,5.7125,5.7177,5.7231,5.7267,5.7332,5.7341,5.7377,5.737,5.738,5.7457,5.7484,5.7535,5.7557,5.7551,5.7646,5.763,5.7605,5.7556,5.7646,5.7681,5.7695,5.7504,5.7503,5.7502,5.7501,0,0,5.7207,5.7261,5.7279,5.7302,5.7346,5.739,5.7454,5.7505,5.7534,5.7572,5.7623,5.7696,5.7671,5.7699,5.7696,5.7738,5.7825,5.7706,5.7707,5.7724,5.7928,5.7945,5.7962,5.7813,5.7816,5.7818,5.7924,0,5.7318,5.7431,5.7433,5.7536,5.7589,5.7568,5.7623,5.7654,5.7665,5.7709,5.772,5.7771,5.7737,5.7753,5.7794,5.7806,5.7866,5.7799,5.7857,5.7859,5.7846,5.7981,5.7999,5.8098,5.7938,5.794,5.7942,0,5.7462,5.7506,5.7614,5.7648,5.767,5.772,5.7765,5.7809,5.7843,5.7847,5.7878,5.7868,5.7929,5.7881,5.7964,5.7918,5.7942,5.7952,5.7955,5.7958,5.7904,5.7984,5.813,5.8143,5.7964,5.7962,5.7961,0,5.755,5.7636,5.7711,5.7732,5.7774,5.7809,5.7827,5.7858,5.7888,5.7928,5.7946,5.7992,5.8016,5.805,5.8051,5.8017,5.8133,5.8086,5.8136,5.8136,5.8159,5.8157,5.8307,5.818,5.818,5.8179,5.8179,0,5.7672,5.7738,5.7751,5.7797,5.7869,5.787,5.7941,5.7956,5.7983,5.803,5.8015,5.8058,5.8059,5.8102,5.8103,5.8169,5.8181,5.8184,5.8183,5.8184,5.8183,5.8197,5.8189,5.8183,5.8183,5.8182,5.8181,0,5.7782,5.7793,5.7873,5.7907,5.7917,5.7968,5.7995,5.8038,5.8047,5.8106,5.8119,5.8133,5.8183,5.8189,5.8247,5.8248,5.8326,5.832,5.8315,5.8313,5.8361,5.8355,5.8523,5.8544,5.8406,5.8407,5.8409,0,5.7857,5.7908,5.7947,5.7978,5.7999,5.8049,5.8079,5.8081,5.8113,5.8154,5.819,5.8239,5.8278,5.8359,5.8372,5.8416,5.8408,5.8464,5.8414,5.8412,5.8404,5.84,5.8404,5.8472,5.8474,5.8475,5.8476,0,5.7989,5.7992,5.8038,5.8085,5.8122,5.8159,5.8193,5.8218,5.8224,5.826,5.8312,5.8342,5.8402,5.8449,5.8491,5.8508,5.8492,5.8492,5.8505,5.8505,5.8499,5.8499,5.8338,5.8487,5.8486,5.8486,5.8485,5.8484,5.8082,5.8125,5.8158,5.8209,5.8235,5.8267,5.8308,5.8323,5.8367,5.8416,5.8414,5.847,5.8499,5.8555,5.8575,5.8617,5.8598,5.8618,5.8622,5.8626,5.8629,5.8495,5.8625,5.8624,5.8624,5.8624,5.8624,0,5.821,5.8231,5.8277,5.8326,5.8365,5.835,5.8386,5.8419,5.8469,5.8499,5.8538,5.8595,5.8641,5.8659,5.8702,5.8732,5.8726,5.8743,5.8739,5.8742,5.8646,5.8628,5.8747,5.8747,5.8747,5.8747,5.8747,5.8747,5.8281,5.8352,5.8358,5.844,5.846,5.8516,5.8538,5.8566,5.859,5.8655,5.8694,5.8706,5.873,5.8775,5.8815,5.8818,5.8833,5.8854,5.8854,5.8762,5.875,5.8738,5.8721,5.8858,5.8858,5.8947,5.8948,5.8948]}]]